Regional Weather Roundup
Issued by NWS

Home | Current Version | Previous Version | Graphics & Text | Print | Product List | Glossary On
Versions: 1 2 3 4 5 6 7 8 9 10 11 12 13 14 15 16 17 18 19 20 21 22 23 24 25 26 27
000
ASUS45 KBOU 231007
RWRCO

WEATHER ROUNDUP FOR COLORADO
NATIONAL WEATHER SERVICE DENVER/BOULDER CO
400 AM MDT MON OCT 23 2017

NOTE: "FAIR" INDICATES FEW OR NO CLOUDS BELOW 12000 FEET WITH NO
SIGNIFICANT WEATHER AND/OR OBSTRUCTIONS TO VISIBILITY.

COZ001>005-013-030-031-231100-
...NORTHWEST COLORADO...

CITY           SKY/WX    TMP DP  RH WIND       PRES   REMARKS
CRAIG          CLOUDY    46  31  55 N5        30.41F
HAYDEN         CLOUDY    47  28  47 NW5       30.44R
MEEKER         CLOUDY    40  31  70 CALM      30.45R
RABBIT EARS PA CLOUDY    32  28  86 W14G32    30.50R WCI  22
STEAMBOAT SPGS CLOUDY    44  31  61 SE3       30.42S
WALDEN         NOT AVBL
$$

COZ006>008-011-231100-
...WEST CENTRAL VALLEYS...

CITY           SKY/WX    TMP DP  RH WIND       PRES   REMARKS
GRAND JUNCTION FAIR      42  25  50 SE10      30.41S
MONTROSE       FAIR      35  23  61 SE8       30.48R WCI  29
EAGLE          CLOUDY    39  28  64 E6        30.48
RIFLE          FAIR      40  30  67 VRB3      30.46S
DELTA          FAIR      40  22  49 E3        30.46R
NUCLA          FAIR      37  19  48 SE9       30.49R
$$

COZ017>023-064>068-231100-
...SOUTHWEST COLORADO...

CITY           SKY/WX    TMP DP  RH WIND       PRES   REMARKS
DURANGO        FAIR      31  20  63 NE7       30.41F WCI  24
CORTEZ         FAIR      33  21  61 NE8       30.43S WCI  26
PAGOSA SPRINGS FAIR      32  20  61 CALM      30.45F
TELLURIDE      FAIR      38  19  46 E3        30.58R
WOLF CREEK PAS FAIR      37  21  52 NW9       30.64F
$$

COZ009-010-012-014-032>034-037-058>063-231100-
...CENTRAL COLORADO...

CITY           SKY/WX    TMP DP  RH WIND       PRES   REMARKS
ASPEN          CLOUDY    37  29  72 S8        30.49F
BUENA VISTA    FAIR      49  20  32 W14G26    30.36F
COPPER MTN     CLOUDY    34  28  80 MISG      30.59R
BERTHOUD PASS  CLOUDY    27  18  69 NW45G58   30.49F WCI   7
COTTONWOOD PAS FAIR      46  23  39 SW38G59   30.40F
GUNNISON       FAIR      27  22  81 NW3       30.51S
KREMMLING      MOCLDY    50  27  40 W7        30.44R
LEADVILLE      CLOUDY    37  21  52 VRB3      30.51S
MONARCH PASS   FAIR      30  21  69 W43G60    30.61F WCI  13
SALIDA         FAIR      53  23  31 W12G21    30.40S
SUNLIGHT       CLOUDY    32  21  64 SW12G20   30.60F WCI  23
WILKERSON PASS FAIR      34  21  60 W13G24    30.46R WCI  25
$$

COZ069>075-231100-
...SAN LUIS VALLEY/SANGRE DE CRISTO MOUNTAINS...

CITY           SKY/WX    TMP DP  RH WIND       PRES   REMARKS
ALAMOSA        FAIR      25  19  78 SW8       30.40F WCI  16
DEL NORTE      FAIR      32  18  56 W13       30.42F WCI  23
LA VETA PASS   FAIR      39  19  45 S29G40    30.55F
SAGUACHE       FAIR      36  21  55 N8        30.42R
$$

COZ035-036-038>040-231100-
...NORTHERN COLORADO FRONT RANGE...

CITY           SKY/WX    TMP DP  RH WIND       PRES   REMARKS
DENVER INTL AP FAIR      51  27  39 E8        30.19R
DMNS CITY PARK   N/A     62  25  24 N18G24    30.20R
AURORA         PTCLDY    60  26  27 W14G20    30.21R
FRONT RANGE AP FAIR      52  30  43 N10       30.21S
ERIE MUNI ARPT FAIR      56  26  31 NW5       30.24R
BOULDER MUN AP FAIR      61  28  29 N9        30.18R
CENTENNIAL     FAIR      59  25  27 CALM      30.22R
BROOMFIELD     FAIR      61  28  29 NW20G41   30.22R
FORT COLLINS   FAIR      61  29  29 NW32G40   30.17S
LONGMONT       FAIR      63  27  25 SE3       30.20R
$$

COZ041-046-047-076>085-087-088-231100-
...PIKES PEAK/PALMER DIVIDE AND SOUTHERN FOOTHILLS...

CITY           SKY/WX    TMP DP  RH WIND       PRES   REMARKS
COLO. SPRINGS  FAIR      54  27  35 NW9       30.23R
A. F. ACADEMY  FAIR      56  23  28 N12       30.22S
SCHRIEVER AFB  FAIR      50  25  38 N8        30.23R
CHEYENNE MTN   FAIR      60  22  23 N22G29    30.18R
ELLICOTT         N/A      1  32 100 E10       30.22R WCI -15
FALCON         FAIR      51  23  33 N7G17     30.26R
FORT CARSON    FAIR      51  26  37 S6        30.20R
LIMON          FAIR      40  28  62 W7        30.20S
MONUMENT HILL  FAIR      41  25  52 CALM      30.28R
CANON CITY     FAIR      50  27  40 W7        30.21R
WALSENBURG     NOT AVBL
TRINIDAD       FAIR      55  26  32 W9        30.19F
$$

COZ042>045-048>051-090-091-231100-
...NORTHEAST COLORADO...

CITY           SKY/WX    TMP DP  RH WIND       PRES   REMARKS
GREELEY ARPT   FAIR      59  31  34 N23G32    30.18R
AKRON          FAIR      54  30  40 NW16      30.16R
BURLINGTON     FAIR      46  30  53 NW10      30.13R
WRAY           NOT AVBL
YUMA           NOT AVBL
STERLING       FAIR      54  34  47 N16G28    30.17R
HOLYOKE        FAIR      55  34  44 N20G31    30.16R
FORT MORGAN    FAIR      55  28  34 NW18      30.17R
$$

COZ086-089-092>099-231100-
...SOUTHEAST COLORADO...

CITY           SKY/WX    TMP DP  RH WIND       PRES   REMARKS
PUEBLO         FAIR      57  25  29 NW7       30.15R
LA JUNTA       FAIR      42  31  64 NW3       30.15R
LAMAR          FAIR      35  29  78 SW5       30.12R WCI  31
SPRINGFIELD      N/A     48  28  46 W13       30.11S
$$




USA.gov is the U.S. government's official web portal to all federal, state and local government web resources and services.